Regional Weather Roundup
Issued by NWS

Home | Current Version | Previous Version | Graphics & Text | Print | Product List | Glossary On
Versions: 1 2 3 4 5 6 7 8 9 10 11 12 13 14 15 16 17 18 19 20 21 22 23 24 25 26 27 28 29 30 31 32 33 34 35 36 37 38 39 40 41 42 43 44 45 46 47 48 49 50
000
ASUS43 KDMX 281804
RWRIA

WEATHER ROUNDUP FOR IOWA
NATIONAL WEATHER SERVICE DES MOINES IA
  ISSUED BY NWS QUAD CITIES IA IL
1200 PM CST WED JAN 28 2015

NOTE: "FAIR" INDICATES FEW OR NO CLOUDS BELOW 12,000 FEET WITH NO
SIGNIFICANT WEATHER AND/OR OBSTRUCTIONS TO VISIBILITY.

* - THESE STATIONS ARE NOT NWS STATIONS...THUS NOT UNDER NWS
QUALITY CONTROL.  THEY ALSO DO NOT REPORT WEATHER SUCH
AS PRECIPITATION OR FOG.

IAZ001>003-012>014-020>022-031>034-043>046-281900-
   NORTHWEST IOWA

CITY           SKY/WX    TMP DP  RH WIND       PRES   REMARKS
CARROLL *      FAIR      39  34  81 SE17      29.80F WCI  30
CHEROKEE *     FAIR      36  34  91 S13       29.78F FOG     WCI  27
6HR MIN TEMP:  30; 6HR MAX TEMP:  36;

DENNISON *     FAIR      41  34  75 S14       29.76F WCI  33
LE MARS *      FAIR      39  34  81 S15       29.75F WCI  31
ORANGE CITY *  FAIR      37  30  75 S10       29.74F WCI  30
SHELDON *      PTSUNNY   34  34 100 SE16      29.76F FOG     WCI  23
SIOUX CITY     FAIR      42  33  70 SE13      29.76F WCI  35
6HR MIN TEMP:  31; 6HR MAX TEMP:  42;

SPENCER        CLOUDY    33  30  88 SE16G25   29.79F FOG     WCI  23
6HR MIN TEMP:  31; 6HR MAX TEMP:  33;

STORM LAKE *   PTSUNNY   34  32  93 SE16      29.78F FOG     WCI  23
$$

IAZ055>058-069>071-079>083-090>094-281900-
   SOUTHWEST IOWA

CITY           SKY/WX    TMP DP  RH WIND       PRES   REMARKS
ATLANTIC *     FAIR      43  34  70 S12G17    29.79F WCI  37
AUDUBON *      FAIR      43  36  75 S13       29.80F WCI  36
CLARINDA *     FAIR      50  36  57 SE13      29.80F
COUNCIL BLFS * FAIR      46  34  61 S12       29.75F
CRESTON *      FAIR      43  36  75 SE17      29.82F WCI  35
HARLAN *       FAIR      43  37  81 SE12G17   29.81F WCI  37
LAMONI         FAIR      45  34  65 S14G23    29.85F WCI  38
6HR MIN TEMP:  29; 6HR MAX TEMP:  45;

RED OAK *      FAIR      48  34  57 SE14      29.77F
SHENANDOAH *   FAIR      54  36  50 SE13      29.78F
$$

IAZ047>049-059>061-072>074-084-281900-
   CENTRAL IOWA

CITY           SKY/WX    TMP DP  RH WIND       PRES   REMARKS
AMES           FAIR      36  29  75 SE17G24   29.87F WCI  26
6HR MIN TEMP:  29; 6HR MAX TEMP:  36;

ANKENY *       FAIR      41  32  70 S15G24    29.88F WCI  33
BOONE *        PTSUNNY   37  34  87 S15G22    29.84F WCI  28
CHARITON *     FAIR      43  34  70 S20       29.88F WCI  34
DES MOINES     CLOUDY    41  32  70 S15       29.88F WCI  33
6HR MIN TEMP:  30; 6HR MAX TEMP:  41;

GRINNELL *     FAIR      37  32  82 SE22      29.92F WCI  26
6HR MIN TEMP:  29; 6HR MAX TEMP:  37;

KNOXVILLE *    FAIR      41  32  70 S16G23    29.88F WCI  33
MARSHALLTOWN   FAIR      36  30  79 SE20G30   29.89F WCI  25
6HR MIN TEMP:  28; 6HR MAX TEMP:  36;

NEWTON *       FAIR      37  32  81 S21       29.89F WCI  27
PELLA *        FAIR      40  32  74 SE16G22   29.91F WCI  31
6HR MIN TEMP:  29; 6HR MAX TEMP:  40;

PERRY *          N/A     38  33  81 SE14      29.84F WCI  30
6HR MIN TEMP:  31; 6HR MAX TEMP:  38;

$$

IAZ004>006-015-016-023>025-035-036-281900-
   NORTH CENTRAL IOWA

CITY           SKY/WX    TMP DP  RH WIND       PRES   REMARKS
ALGONA *       PTSUNNY   32  32 100 SE20G30   29.83F FOG     WCI  20
CLARION *      CLOUDY    32  32 100 SE18G28   29.86F FOG     WCI  20
ESTHERVILLE    CLOUDY    31  30  96 S20G25    29.81F FOG     WCI  19
6HR MIN TEMP:  29; 6HR MAX TEMP:  31;

FORT DODGE *   CLOUDY    34  28  80 SE9G17    29.85F WCI  26
6HR MIN TEMP:  28; 6HR MAX TEMP:  34;

MASON CITY     CLOUDY    31  30  96 SE21G28   29.88F FOG     WCI  18
6HR MIN TEMP:  27; 6HR MAX TEMP:  31; 6HR PCP: TRACE;

WEBSTER CITY * CLOUDY    34  34 100 SE20      29.84F FOG     WCI  22
IOWA FALLS *   CLOUDY    34  31  88 SE13      29.90F WCI  25
6HR MIN TEMP:  28; 6HR MAX TEMP:  34;

$$

IAZ007>011-017>019-026>030-037>042-050>054-066-281900-
   NORTHEAST IOWA

CITY           SKY/WX    TMP DP  RH WIND       PRES   REMARKS
CEDAR RAPIDS   FAIR      35  28  75 SE18G24   29.96F WCI  24
6HR MIN TEMP:  27; 6HR MAX TEMP:  35;

CHARLES CITY * CLOUDY    32  32 100 SE16G23   29.92F FOG     WCI  21
CLINTON *      FAIR      30  19  64 SE18G25   30.10F WCI  18
6HR MIN TEMP:  27; 6HR MAX TEMP:  30;

DECORAH *      CLOUDY    32  28  86 SE13G22   29.97F WCI  22
DUBUQUE        FAIR      29  20  69 SE18      30.04F WCI  16
6HR MIN TEMP:  25; 6HR MAX TEMP:  29;

MONTICELLO *   FAIR      30  25  80 SE17G25   30.01F WCI  18
OELWEIN *      FAIR      32  28  86 SE23      29.96F WCI  19
WATERLOO       PTSUNNY   36  29  75 SE16G23   29.94F WCI  26
6HR MIN TEMP:  26; 6HR MAX TEMP:  36;

$$

IAZ064-065-067-068-078-281900-
   EAST CENTRAL IOWA

CITY           SKY/WX    TMP DP  RH WIND       PRES   REMARKS
DAVENPORT      FAIR      32  22  66 SE23G30   30.05F WCI  19
6HR MIN TEMP:  26; 6HR MAX TEMP:  32;

IOWA CITY      FAIR      34  28  79 SE20G28   30.01F WCI  23
6HR MIN TEMP:  27; 6HR MAX TEMP:  34;

MT. PLEASANT * FAIR      38  31  76 SE24      30.00F WCI  26
6HR MIN TEMP:  27; 6HR MAX TEMP:  38;

MUSCATINE *    FAIR      36  27  69 SE15G21   30.03F WCI  26
QUAD CITIES    FAIR      32  24  72 SE15G23   30.06F WCI  22
6HR MIN TEMP:  24; 6HR MAX TEMP:  32;

$$

IAZ062-063-075>077-085>089-095>099-281900-
   SOUTHEAST IOWA

CITY           SKY/WX    TMP DP  RH WIND       PRES   REMARKS
BURLINGTON     FAIR      39  30  70 SE18      30.02F WCI  30
6HR MIN TEMP:  27; 6HR MAX TEMP:  39;

FAIRFIELD *    FAIR      39  30  70 S18G28    29.97F WCI  30
FORT MADISON * FAIR      37  30  75 SE20G26   30.03F WCI  27
KEOKUK *       FAIR      41  32  70 S18G31    30.01F WCI  32
OTTUMWA        FAIR      39  31  72 SE18G30   29.93F WCI  30
6HR MIN TEMP:  28; 6HR MAX TEMP:  40;

WASHINGTON *   FAIR      39  36  87 SE22      29.97F WCI  29
$$

ABBREVIATIONS USED IN REMARKS
   TC - TEMPERATURES IN CELSIUS
  WCI - WIND CHILL INDEX
   HX - HEAT INDEX
  VSB - VISIBILITY
$$


USA.gov is the U.S. government's official web portal to all federal, state and local government web resources and services.